[[{"header":{"parameterUnit":"m.s-1","parameterCategory":1,"la1":30.2991,"la2":30.254,"lo1":-89.0895,"lo2":-89.0444,"dy":0.0017,"dx":0.0017,"nx":28,"ny":28,"refTime":"2023-07-30T09:00:00:Z","depth":0,"parameterNumber":2,"parameterNumberName":"U-component_of_WINDS"},"data":[0,0,0,0,0,0,0,0,0,0,0,0,0,0,0,0,0,0,0,0,0,0,0,0,0,0,0,0,0,0,0,0,0,0,0,0,0,0,0,0,0,0,0,0,0,0,0,0,0,0,0,0,0,0,0,0,0,0,1.9039,1.904,0,1.9153,1.9154,1.9155,1.9136,1.9134,1.9132,1.9131,1.9255,1.926,1.9265,0,0,0,0,0,0,0,0,0,0,0,0,0,1.8812,1.8816,1.9039,1.904,1.9042,1.9153,1.9154,1.9156,1.9137,1.9134,1.9132,1.913,1.9253,1.9259,1.9265,0,0,0,0,0,0,0,0,0,0,0,0,0,1.8917,1.8818,1.9038,1.9045,1.9047,1.9152,1.9154,1.9156,1.9137,1.9134,1.9131,1.9128,1.9251,1.9258,1.9266,1.9374,0,0,1.929,1.9293,0,0,0,0,0,0,0,0,1.8911,1.8925,1.9043,1.9045,1.9047,1.9127,1.912,1.923,1.9138,1.9103,1.913,1.9127,1.9215,1.9226,1.9254,1.938,1.9385,1.9291,1.9295,1.9299,1.9301,0,0,0,0,0,0,0,1.8904,1.892,1.9084,1.9045,1.9047,1.9045,1.9057,1.9141,1.9175,1.9106,1.9105,1.9118,1.9216,1.9246,1.9257,1.9387,1.929,1.9297,1.9302,1.9305,1.961,1.9613,0,0,0,0,0,0,1.8893,1.8914,1.908,1.9087,1.897,1.9052,1.9065,1.9105,1.9174,1.9181,1.9121,1.9117,1.9235,1.9248,1.9261,1.9393,1.9298,1.9306,1.931,1.9606,1.9611,1.9614,0,0,0,0,0,0,1.8889,1.8908,1.9076,1.9001,1.9022,1.9059,1.9104,1.9108,1.9139,1.9185,1.9192,1.9145,1.9233,1.925,1.9346,1.9397,1.9309,1.9316,1.9602,1.9608,1.9612,1.9658,0,0,0,0,0,0,1.8882,1.8907,1.8946,1.9002,1.9026,1.9157,1.9107,1.9113,1.9152,1.9148,1.921,1.9217,1.9232,1.9335,1.9354,1.9407,1.9322,1.9598,1.9605,1.9611,1.9652,1.9664,1.9675,0,0,0,0,0,1.8874,1.8956,1.8948,1.8969,1.9076,1.916,1.9174,1.9187,1.9156,1.9197,1.9227,1.9215,1.9388,1.9345,1.9366,1.9422,1.9595,1.9603,1.961,1.9647,1.9662,1.9674,0,0,0,0,0,0,1.8908,1.8963,1.8956,1.9057,1.9104,1.9156,1.9209,1.9202,1.926,1.9254,1.927,1.9285,1.9383,1.9412,1.9362,1.9531,1.9488,1.95,1.9509,1.9523,1.9534,1.9525,1.9329,0,0,0,0,0,1.8926,1.8988,1.9034,1.9119,1.9143,1.9172,1.9209,1.9215,1.9265,1.9285,1.9322,1.9373,1.9439,1.9482,1.9545,1.9656,1.9671,1.9705,1.9716,1.9725,1.9737,1.9799,1.9816,1.964,1.964,1.964,0,0,1.8967,1.9005,1.9043,1.9127,1.9164,1.923,1.9189,1.926,1.9309,1.9297,1.9389,1.9418,1.9476,1.9581,1.9628,1.9608,1.9788,1.9735,1.9742,1.9749,1.9809,1.9826,1.9841,1.9645,1.9644,1.9643,0,0,1.9074,1.9108,1.9183,1.9221,1.9276,1.9295,1.9313,1.9368,1.9386,1.9478,1.9471,1.9531,1.9644,1.9686,1.9723,1.9847,1.9839,1.9867,1.9926,1.9987,2.0001,2.0014,2.006,2.0076,1.9878,1.9878,1.9878,0,1.9118,1.9214,1.9224,1.9296,1.9334,1.9323,1.9402,1.9438,1.9513,1.9541,1.9516,1.9658,1.9696,1.9811,1.9842,1.9871,1.9894,1.9861,1.9998,2.001,2.0022,2.0067,2.0084,1.9881,1.9881,1.988,1.988,0,1.9267,1.9334,1.9389,1.9459,1.9503,1.9578,1.9601,1.9645,1.9648,1.967,1.9766,1.9811,1.9884,1.9912,1.9916,2.0028,2.0014,1.9993,1.995,2.0042,2.0084,2.0101,1.9886,1.9884,1.9884,1.9883,0,0,1.9399,1.9473,1.9493,1.9525,1.9586,1.964,1.9715,1.9784,1.9823,1.9875,1.9941,2.0036,2.0018,2.0059,2.0068,2.0121,2.0219,2.0094,2.0096,2.0118,2.0349,2.0365,2.0384,2.0214,2.0217,2.0219,2.0344,0,1.9513,1.9644,1.9655,1.9774,1.9838,1.9829,1.9895,1.9941,1.9964,2.0023,2.005,2.0118,2.0087,2.0113,2.0165,2.0196,2.0266,2.0187,2.0278,2.0281,2.0264,2.0406,2.0423,2.0538,2.036,2.0363,2.0365,0,1.9664,1.9719,1.9843,1.9896,1.9924,1.9982,2.0048,2.0103,2.0157,2.017,2.0216,2.0217,2.0298,2.025,2.0363,2.0309,2.0347,2.0368,2.0373,2.0383,2.0329,2.0422,2.0575,2.0593,2.0391,2.0389,2.0387,0,1.975,1.9855,1.9944,1.9971,2.0035,2.0077,2.0106,2.0156,2.0197,2.0255,2.0282,2.0349,2.0387,2.044,2.046,2.0423,2.0573,2.0527,2.0589,2.0588,2.0622,2.062,2.0785,2.0643,2.0643,2.0643,2.0642,0,1.9878,1.9955,1.9983,2.0038,2.0125,2.0138,2.0225,2.0252,2.0296,2.0358,2.0355,2.0413,2.0436,2.0499,2.0516,2.0608,2.0624,2.0639,2.0643,2.0641,2.0639,2.0667,2.066,2.0647,2.0646,2.0645,2.0645,0,1.9989,2.0011,2.0107,2.0159,2.0174,2.0236,2.0282,2.0337,2.0358,2.0437,2.0456,2.0492,2.0566,2.0591,2.0681,2.0692,2.08,2.0796,2.0782,2.0783,2.0844,2.0838,2.1035,2.1062,2.09,2.0902,2.0903,0,2.007,2.0129,2.0187,2.0227,2.0257,2.0322,2.0364,2.038,2.0424,2.0489,2.0536,2.0609,2.0668,2.0787,2.0823,2.0893,2.0892,2.0955,2.0902,2.0898,2.0895,2.0891,2.0898,2.0966,2.0968,2.0969,2.097,0,2.0211,2.0219,2.0278,2.0342,2.0392,2.0443,2.0493,2.0527,2.0551,2.0601,2.0675,2.0721,2.0813,2.0886,2.0957,2.099,2.0985,2.0986,2.1005,2.1003,2.0993,2.1001,2.0811,2.0982,2.0981,2.098,2.0979,2.0979,2.0311,2.0364,2.0413,2.048,2.0519,2.0566,2.0619,2.0647,2.0709,2.0783,2.079,2.0871,2.0924,2.1019,2.1055,2.112,2.1102,2.1129,2.1136,2.1142,2.1148,2.0981,2.1133,2.1133,2.1132,2.1132,2.1132,0,2.0454,2.0485,2.0546,2.0616,2.0669,2.0657,2.0712,2.0758,2.0829,2.0878,2.0935,2.1022,2.1094,2.1134,2.1206,2.1251,2.1251,2.127,2.1267,2.1275,2.1158,2.1136,2.1269,2.1269,2.1269,2.1269,2.1269,2.1269,2.0535,2.0623,2.0637,2.0746,2.0778,2.0856,2.0888,2.0932,2.0972,2.1068,2.1126,2.1152,2.1198,2.1274,2.1339,2.135,2.1377,2.1398,2.1407,2.1298,2.1284,2.127,2.1249,2.1404,2.1404,2.1519,2.152,2.1521]},{"header":{"parameterUnit":"m.s-1","parameterCategory":1,"la1":30.2991,"la2":30.254,"lo1":-89.0895,"lo2":-89.0444,"dy":0.0017,"dx":0.0017,"nx":28,"ny":28,"refTime":"2023-07-30T09:00:00:Z","depth":0,"parameterNumber":3,"parameterNumberName":"V-component_of_WINDS"},"data":[0,0,0,0,0,0,0,0,0,0,0,0,0,0,0,0,0,0,0,0,0,0,0,0,0,0,0,0,0,0,0,0,0,0,0,0,0,0,0,0,0,0,0,0,0,0,0,0,0,0,0,0,0,0,0,0,0,0,2.7048,2.7049,0,2.7197,2.7199,2.72,2.7148,2.7145,2.7141,2.7138,2.7289,2.7296,2.7303,0,0,0,0,0,0,0,0,0,0,0,0,0,2.6712,2.6719,2.7048,2.705,2.7051,2.7197,2.7199,2.7201,2.7148,2.7144,2.714,2.7137,2.7287,2.7295,2.7304,0,0,0,0,0,0,0,0,0,0,0,0,0,2.6859,2.6721,2.7047,2.7043,2.7044,2.7196,2.7199,2.7201,2.7149,2.7144,2.7139,2.7135,2.7284,2.7294,2.7305,2.747,0,0,2.7337,2.7342,0,0,0,0,0,0,0,0,2.6851,2.6872,2.7042,2.7043,2.7045,2.7149,2.7136,2.7291,2.7151,2.7109,2.7138,2.7132,2.7246,2.726,2.7299,2.7477,2.7484,2.7338,2.7345,2.7349,2.7352,0,0,0,0,0,0,0,2.6841,2.6865,2.7107,2.7044,2.7046,2.7032,2.7047,2.7165,2.7204,2.7112,2.7109,2.7127,2.7246,2.7288,2.7302,2.7486,2.7338,2.7347,2.7354,2.7358,2.7801,2.7806,0,0,0,0,0,0,2.683,2.6857,2.7102,2.7111,2.6934,2.7042,2.7059,2.712,2.7202,2.721,2.7132,2.7124,2.7273,2.7289,2.7307,2.7501,2.7349,2.7359,2.7365,2.7796,2.7802,2.7808,0,0,0,0,0,0,2.6823,2.6853,2.7096,2.6983,2.7013,2.7053,2.7122,2.7126,2.7168,2.7217,2.7223,2.7168,2.7269,2.7292,2.7429,2.7506,2.7364,2.7374,2.779,2.7798,2.7805,2.7895,0,0,0,0,0,0,2.6814,2.6851,2.6915,2.6985,2.7019,2.7217,2.7127,2.7133,2.7187,2.7179,2.7253,2.726,2.7267,2.7413,2.7439,2.7518,2.7382,2.7783,2.7793,2.7803,2.7885,2.7905,2.7922,0,0,0,0,0,2.6802,2.6935,2.6919,2.6949,2.7101,2.7222,2.7241,2.7248,2.7194,2.7257,2.7288,2.7258,2.7494,2.7428,2.7457,2.754,2.7778,2.779,2.7802,2.7877,2.7901,2.7922,0,0,0,0,0,0,2.6874,2.6945,2.6927,2.7087,2.7149,2.7213,2.7294,2.7274,2.7352,2.7341,2.7345,2.7362,2.7501,2.7535,2.746,2.7701,2.7627,2.7646,2.7674,2.7698,2.7716,2.7704,2.7391,0,0,0,0,0,2.6909,2.7002,2.7058,2.7194,2.7226,2.7255,2.7308,2.7307,2.737,2.7396,2.7437,2.7499,2.7586,2.7644,2.7728,2.789,2.7903,2.7961,2.798,2.7995,2.801,2.8092,2.8118,2.7848,2.7848,2.7848,0,0,2.6981,2.7031,2.709,2.7209,2.7257,2.7351,2.7277,2.7381,2.745,2.7412,2.7542,2.7574,2.7644,2.7792,2.786,2.7824,2.8087,2.801,2.8022,2.8029,2.8107,2.8133,2.8156,2.7856,2.7855,2.7853,0,0,2.716,2.7209,2.7325,2.7374,2.7446,2.7464,2.7492,2.7559,2.7578,2.7709,2.7681,2.7762,2.7915,2.7964,2.8009,2.8202,2.8175,2.8229,2.8324,2.8405,2.8426,2.8445,2.851,2.8533,2.8244,2.8245,2.8245,0,2.724,2.7383,2.7387,2.7492,2.7544,2.7513,2.7628,2.7675,2.7772,2.7807,2.7766,2.7953,2.7998,2.8155,2.8201,2.8241,2.8269,2.822,2.8423,2.8442,2.8459,2.8521,2.8546,2.825,2.825,2.8249,2.8249,0,2.7475,2.7574,2.7659,2.7751,2.7813,2.7923,2.7942,2.8003,2.7996,2.8017,2.8148,2.8201,2.8292,2.833,2.8325,2.8485,2.846,2.8422,2.8347,2.8491,2.8548,2.8572,2.8259,2.8257,2.8255,2.8253,0,0,2.7705,2.7796,2.7827,2.7866,2.7943,2.8018,2.8125,2.8214,2.8264,2.8332,2.8418,2.8546,2.8509,2.856,2.856,2.8631,2.8775,2.8583,2.8584,2.8613,2.8949,2.8975,2.9003,2.8758,2.8763,2.8767,2.8942,0,2.7887,2.8075,2.8081,2.8252,2.834,2.8311,2.8403,2.8458,2.848,2.8557,2.8581,2.8669,2.8617,2.8646,2.8715,2.8743,2.8842,2.8731,2.8836,2.884,2.8817,2.9034,2.9063,2.9226,2.8965,2.8969,2.8972,0,2.8125,2.8198,2.8378,2.8437,2.8474,2.8557,2.8637,2.8712,2.8772,2.8783,2.8838,2.8826,2.8931,2.8855,2.8998,2.8922,2.8965,2.8985,2.8991,2.8999,2.8912,2.9044,2.9279,2.9302,2.9008,2.9005,2.9002,0,2.8269,2.8413,2.8537,2.8573,2.8646,2.8704,2.8737,2.8793,2.8845,2.8914,2.8946,2.9028,2.9071,2.9133,2.9141,2.9086,2.9284,2.9209,2.9292,2.9292,2.9334,2.9331,2.9575,2.9367,2.9367,2.9367,2.9366,0,2.8471,2.8581,2.8602,2.8679,2.88,2.8804,2.8923,2.8951,2.9,2.9079,2.9059,2.9134,2.9142,2.9218,2.9226,2.934,2.9361,2.937,2.937,2.937,2.9369,2.9397,2.9384,2.9373,2.9372,2.937,2.9369,0,2.8652,2.8671,2.8804,2.8862,2.8879,2.8965,2.9013,2.9084,2.9103,2.9203,2.9227,2.9256,2.9344,2.9359,2.9463,2.9468,2.9604,2.9594,2.9583,2.9581,2.9662,2.9652,2.9931,2.9965,2.9738,2.974,2.9742,0,2.8777,2.8861,2.8927,2.8978,2.9014,2.9098,2.9149,2.9156,2.921,2.9283,2.9345,2.943,2.9499,2.964,2.9669,2.9747,2.9737,2.9829,2.9749,2.9744,2.9733,2.9727,2.9733,2.9844,2.9846,2.9848,2.985,0,2.8997,2.9001,2.9077,2.9156,2.9218,2.9281,2.9339,2.9382,2.9395,2.9457,2.9546,2.96,2.9704,2.9788,2.9865,2.9896,2.9874,2.9875,2.9898,2.9897,2.9886,2.9889,2.9621,2.9868,2.9866,2.9865,2.9864,2.9863,2.9151,2.9222,2.9278,2.9363,2.9407,2.9461,2.953,2.9556,2.9631,2.9717,2.9715,2.9812,2.9866,2.9967,3.0003,3.0077,3.0047,3.0081,3.0089,3.0096,3.0102,2.9876,3.0091,3.0091,3.009,3.009,3.009,0,2.9366,2.94,2.9477,2.9559,2.9624,2.9599,2.9661,2.9717,2.9802,2.9855,2.9922,3.0022,3.0102,3.0136,3.0214,3.0266,3.0258,3.0286,3.0281,3.0287,3.0126,3.0097,3.0291,3.0291,3.0291,3.0291,3.0291,3.0291,2.9485,2.9603,2.9613,2.9751,2.9783,2.9878,2.9915,2.9964,3.0005,3.0118,3.0184,3.0206,3.025,3.033,3.0401,3.0409,3.0437,3.0469,3.0472,3.032,3.03,3.028,3.0252,3.0476,3.0476,3.0626,3.0627,3.0628]}]]